遥感四十三号01组-C (YAOGAN-43 O1C)

导读 | 豆包AI

YAOGAN-43 O1C(遥感四十三号01C星)是中国于2024年8月16日发射的遥感卫星。作为中国遥感卫星体系的组成部分,该卫星主要用于国土资源普查、农业估产、环境监测、灾害预警及城市规划等领域,将与其他遥感卫星组网,提升中国对地观测的覆盖范围与数据获取能力,为国民经济建设和科学研究提供空间信息支撑。

基本信息
目录编号:
60460
目录名称:
YAOGAN-43 O1C
国际标识:
2024-148C
轨道中心:
EARTH
卫星名称:
遥感四十三号01组-C (YAOGAN-43 O1C)
卫星全名:
遥感四十三号01组-C (YAOGAN-43 O1C)
卫星状态:
在轨 (已飞行597 天)
发射日期:
2024-08-16 UTC
国别 :
中国 (CN)
星等 :
--
轨道信息
数据来源 国际轨道数据
星历时间: 2026-04-05T06:24:22+0800
20小时前
查看轨道信息
半长轴: 6873.98km
偏心率: 0.0006479
轨道倾角: 34.999°
近地点辐角 261.860°
升交点赤经 263.220°
平近点角 98.138°
近地点: 491.389km
远地点: 500.297km
周期: 94.531分钟
每日圈数: 15.233174
详细信息
运营商:
中国空间技术研究院
运营商所在国:
中国
制造商(研发单位):
中国空间技术研究院
制造商所在国:
中国
使用方式:
暂无
卫星简介
遥感四十三号卫星组分别由航天科技集团五院和八院等抓总研制,主要用于开展低轨星座系统新技术试验。
2D轨道图
3D轨道图
轨道高度分析图
轨道倾角分析图
轨道综合分析图
查看轨道综合分析图